| time (UTC) | temp F | wind direction | speed knots | gust knots | rain 1hr in | rain 24hr in | rain mn in | humidity % | barometer mb |
| 20260508110013 | 28 | 224 | 0.0 | 0.0 | 0.00 | 0.00 | 0.00 | 95 | 1017.3 |
| 20260508104518 | 28 | 224 | 0.0 | 0.0 | 0.00 | 0.00 | 0.00 | 95 | 1017.2 |
| 20260508103027 | 28 | 224 | 0.0 | 0.0 | 0.00 | 0.00 | 0.00 | 95 | 1017.2 |
| 20260508101527 | 28 | 224 | 0.0 | 0.0 | 0.00 | 0.00 | 0.00 | 95 | 1017.0 |
| 20260508100009 | 28 | 224 | 0.0 | 0.0 | 0.00 | 0.00 | 0.00 | 95 | 1016.7 |
| 20260508094536 | 28 | 224 | 0.0 | 0.0 | 0.00 | 0.00 | 0.00 | 95 | 1016.6 |
| 20260508093025 | 28 | 224 | 0.0 | 0.0 | 0.00 | 0.00 | 0.00 | 94 | 1016.5 |
| 20260508091540 | 29 | 224 | 0.0 | 0.0 | 0.00 | 0.00 | 0.00 | 94 | 1016.4 |
| 20260508090005 | 29 | 224 | 0.0 | 0.0 | 0.00 | 0.00 | 0.00 | 94 | 1016.4 |
| 20260508084512 | 29 | 224 | 0.0 | 0.0 | 0.00 | 0.00 | 0.00 | 94 | 1016.4 |
| 20260508083016 | 29 | 224 | 0.0 | 0.0 | 0.00 | 0.00 | 0.00 | 94 | 1016.3 |
| 20260508081531 | 29 | 224 | 0.0 | 0.0 | 0.00 | 0.00 | 0.00 | 94 | 1016.2 |
| 20260508080005 | 30 | 224 | 0.0 | 0.0 | 0.00 | 0.00 | 0.00 | 95 | 1016.0 |
| 20260508074506 | 30 | 224 | 0.0 | 0.0 | 0.00 | 0.00 | 0.00 | 94 | 1016.0 |
| 20260508073014 | 30 | 224 | 0.0 | 0.0 | 0.00 | 0.00 | 0.00 | 93 | 1015.9 |
| 20260508071521 | 30 | 224 | 0.0 | 0.0 | 0.00 | 0.00 | 0.00 | 94 | 1015.9 |
| 20260508070023 | 30 | 224 | 0.0 | 0.0 | 0.00 | 0.00 | 0.00 | 93 | 1015.9 |
| 20260508064532 | 31 | 224 | 0.0 | 0.0 | 0.00 | 0.00 | 0.00 | 93 | 1015.9 |
| 20260508063007 | 31 | 224 | 0.0 | 0.0 | 0.00 | 0.00 | 0.00 | 93 | 1016.0 |
| 20260508061516 | 31 | 224 | 0.0 | 0.0 | 0.00 | 0.00 | 0.00 | 92 | 1016.0 |
| 20260508060023 | 32 | 224 | 0.0 | 0.0 | 0.00 | 0.00 | 0.00 | 93 | 1015.9 |
| 20260508054529 | 33 | 224 | 0.0 | 0.0 | 0.00 | 0.00 | 0.00 | 92 | 1015.8 |
| 20260508053028 | 33 | 224 | 0.0 | 0.0 | 0.00 | 0.00 | 0.00 | 92 | 1015.8 |
| 20260508051509 | 33 | 224 | 0.0 | 0.0 | 0.00 | 0.00 | 0.00 | 92 | 1015.7 |
| 20260508050013 | 34 | 216 | 0.0 | 0.0 | 0.00 | 0.00 | 0.00 | 91 | 1015.7 |
| 20260508044518 | 34 | 216 | 0.0 | 0.0 | 0.00 | 0.00 | 0.00 | 92 | 1015.8 |
| 20260508043024 | 35 | 201 | 0.0 | 0.9 | 0.00 | 0.00 | 0.00 | 91 | 1015.6 |
| 20260508041528 | 35 | 262 | 0.0 | 0.0 | 0.00 | 0.01 | 0.00 | 89 | 1015.5 |
| 20260508040019 | 36 | 263 | 0.0 | 0.0 | 0.00 | 0.01 | 0.00 | 90 | 1015.5 |
| 20260508034519 | 36 | 262 | 0.0 | 0.0 | 0.00 | 0.01 | 0.01 | 88 | 1015.3 |
| 20260508033021 | 37 | 262 | 0.0 | 0.0 | 0.00 | 0.01 | 0.01 | 88 | 1015.3 |
| 20260508031522 | 38 | 262 | 0.0 | 0.0 | 0.00 | 0.01 | 0.01 | 86 | 1015.0 |
| 20260508030027 | 39 | 262 | 0.0 | 0.9 | 0.00 | 0.01 | 0.01 | 86 | 1014.8 |
| 20260508024518 | 39 | 262 | 0.0 | 0.0 | 0.00 | 0.01 | 0.01 | 85 | 1014.9 |
| 20260508023020 | 40 | 261 | 0.0 | 0.0 | 0.00 | 0.01 | 0.01 | 82 | 1014.6 |
| 20260508021522 | 41 | 261 | 0.0 | 0.9 | 0.00 | 0.02 | 0.01 | 80 | 1014.3 |
| 20260508020024 | 43 | 241 | 0.0 | 0.9 | 0.00 | 0.02 | 0.01 | 78 | 1014.2 |
| 20260508014526 | 44 | 271 | 0.0 | 2.6 | 0.00 | 0.02 | 0.01 | 75 | 1014.0 |
| 20260508013012 | 45 | 304 | 0.0 | 2.6 | 0.00 | 0.02 | 0.01 | 74 | 1013.8 |
| 20260508011519 | 46 | 225 | 0.9 | 1.7 | 0.00 | 0.02 | 0.01 | 71 | 1013.6 |
| 20260508010023 | 48 | 298 | 1.7 | 5.2 | 0.00 | 0.02 | 0.01 | 63 | 1013.5 |
| 20260508004525 | 50 | 266 | 0.0 | 4.3 | 0.00 | 0.02 | 0.01 | 59 | 1013.5 |
| 20260508003027 | 51 | 318 | 1.7 | 6.1 | 0.00 | 0.02 | 0.01 | 54 | 1013.3 |
| 20260508001532 | 52 | 262 | 3.5 | 5.2 | 0.00 | 0.03 | 0.01 | 54 | 1013.1 |
| 20260508000005 | 53 | 288 | 3.5 | 6.1 | 0.00 | 0.04 | 0.01 | 52 | 1012.8 |
| 20260507234506 | 54 | 296 | 3.5 | 7.0 | 0.00 | 0.05 | 0.01 | 50 | 1012.9 |
| 20260507233020 | 55 | 294 | 4.3 | 7.8 | 0.00 | 0.06 | 0.01 | 51 | 1012.7 |
| 20260507231507 | 55 | 307 | 4.3 | 9.6 | 0.00 | 0.07 | 0.01 | 50 | 1012.7 |
| 20260507230015 | 54 | 310 | 5.2 | 7.8 | 0.00 | 0.11 | 0.01 | 50 | 1012.4 |
| 20260507224506 | 54 | 291 | 3.5 | 12.2 | 0.00 | 0.11 | 0.01 | 52 | 1012.5 |
| 20260507223006 | 55 | 254 | 4.3 | 9.6 | 0.00 | 0.11 | 0.01 | 52 | 1012.3 |
| 20260507221518 | 57 | 297 | 3.5 | 6.1 | 0.00 | 0.11 | 0.01 | 53 | 1011.9 |
| 20260507220004 | 56 | 291 | 1.7 | 7.0 | 0.00 | 0.11 | 0.01 | 53 | 1012.1 |
| 20260507214503 | 56 | 243 | 4.3 | 13.0 | 0.00 | 0.12 | 0.01 | 54 | 1011.8 |
| 20260507213006 | 56 | 240 | 4.3 | 10.4 | 0.00 | 0.12 | 0.01 | 55 | 1011.5 |
| 20260507211520 | 55 | 264 | 3.5 | 15.6 | 0.00 | 0.12 | 0.01 | 58 | 1011.6 |
| 20260507210014 | 55 | 304 | 3.5 | 7.0 | 0.00 | 0.12 | 0.01 | 56 | 1011.3 |
| 20260507204504 | 57 | 285 | 2.6 | 9.6 | 0.00 | 0.12 | 0.01 | 55 | 1011.3 |
| 20260507203004 | 59 | 287 | 5.2 | 12.2 | 0.00 | 0.12 | 0.01 | 51 | 1011.1 |
| 20260507201506 | 58 | 294 | 4.3 | 14.8 | 0.00 | 0.12 | 0.01 | 50 | 1011.3 |
| 20260507200009 | 57 | 82 | 2.6 | 9.6 | 0.00 | 0.12 | 0.01 | 49 | 1011.4 |
| 20260507194515 | 56 | 287 | 3.5 | 16.5 | 0.00 | 0.12 | 0.01 | 52 | 1011.8 |
| 20260507193005 | 56 | 272 | 3.5 | 11.3 | 0.00 | 0.12 | 0.01 | 53 | 1011.9 |
| 20260507191504 | 57 | 210 | 6.1 | 9.6 | 0.00 | 0.12 | 0.01 | 58 | 1012.0 |
| 20260507190007 | 55 | 50 | 3.5 | 9.6 | 0.00 | 0.12 | 0.01 | 58 | 1012.0 |
| 20260507184510 | 54 | 24 | 3.5 | 7.8 | 0.00 | 0.14 | 0.01 | 58 | 1012.4 |
| 20260507183014 | 54 | 328 | 5.2 | 12.2 | 0.00 | 0.14 | 0.01 | 60 | 1012.5 |
| 20260507181504 | 54 | 289 | 4.3 | 10.4 | 0.00 | 0.14 | 0.01 | 61 | 1012.2 |
| 20260507180007 | 54 | 300 | 6.1 | 12.2 | 0.00 | 0.14 | 0.01 | 62 | 1012.2 |
| 20260507174515 | 53 | 59 | 2.6 | 8.7 | 0.00 | 0.14 | 0.01 | 62 | 1012.4 |
| 20260507173021 | 54 | 40 | 1.7 | 12.2 | 0.00 | 0.14 | 0.01 | 61 | 1012.7 |
| 20260507171516 | 55 | 283 | 5.2 | 8.7 | 0.00 | 0.14 | 0.01 | 61 | 1012.5 |
| 20260507170016 | 53 | 281 | 5.2 | 12.2 | 0.00 | 0.14 | 0.01 | 61 | 1012.8 |
| 20260507164506 | 53 | 319 | 0.9 | 9.6 | 0.00 | 0.14 | 0.01 | 60 | 1012.9 |
| 20260507163009 | 53 | 268 | 0.9 | 7.0 | 0.00 | 0.14 | 0.01 | 58 | 1012.9 |
| 20260507161515 | 53 | 316 | 0.9 | 10.4 | 0.00 | 0.14 | 0.01 | 58 | 1012.9 |
| 20260507160020 | 52 | 271 | 0.9 | 7.0 | 0.00 | 0.14 | 0.01 | 61 | 1012.9 |
| 20260507154507 | 52 | 278 | 1.7 | 7.8 | 0.00 | 0.14 | 0.01 | 62 | 1013.0 |
| 20260507153008 | 52 | 299 | 3.5 | 7.0 | 0.00 | 0.14 | 0.01 | 60 | 1013.2 |
| 20260507151517 | 52 | 285 | 4.3 | 7.8 | 0.00 | 0.14 | 0.01 | 61 | 1013.2 |
| 20260507150018 | 50 | 251 | 1.7 | 8.7 | 0.00 | 0.14 | 0.01 | 64 | 1013.3 |
| 20260507144520 | 50 | 273 | 3.5 | 7.8 | 0.00 | 0.14 | 0.01 | 64 | 1013.2 |
| 20260507143006 | 49 | 253 | 0.9 | 7.0 | 0.00 | 0.14 | 0.01 | 69 | 1013.4 |
| 20260507141509 | 49 | 293 | 0.9 | 7.0 | 0.00 | 0.14 | 0.01 | 73 | 1013.5 |
| 20260507140015 | 48 | 281 | 0.9 | 6.1 | 0.00 | 0.14 | 0.01 | 77 | 1013.7 |
| 20260507134520 | 47 | 234 | 0.9 | 8.7 | 0.00 | 0.14 | 0.01 | 79 | 1013.8 |
| 20260507133024 | 47 | 113 | 2.6 | 3.5 | 0.00 | 0.14 | 0.01 | 82 | 1014.0 |
| 20260507131509 | 47 | 268 | 1.7 | 4.3 | 0.00 | 0.15 | 0.01 | 83 | 1014.0 |
| 20260507130011 | 46 | 295 | 0.0 | 5.2 | 0.00 | 0.15 | 0.01 | 84 | 1014.0 |
| 20260507124516 | 46 | 261 | 1.7 | 5.2 | 0.00 | 0.15 | 0.01 | 85 | 1014.1 |
| 20260507123023 | 46 | 317 | 1.7 | 6.1 | 0.00 | 0.15 | 0.01 | 87 | 1014.0 |
| 20260507121524 | 46 | 290 | 1.7 | 7.0 | 0.00 | 0.19 | 0.01 | 87 | 1013.9 |
| 20260507120008 | 45 | 268 | 2.6 | 5.2 | 0.00 | 0.22 | 0.01 | 87 | 1013.9 |
| 20260507114513 | 46 | 51 | 2.6 | 5.2 | 0.00 | 0.23 | 0.01 | 87 | 1013.8 |
| 20260507113017 | 45 | 266 | 0.9 | 3.5 | 0.00 | 0.25 | 0.01 | 87 | 1013.6 |
| 20260507111523 | 45 | 308 | 1.7 | 5.2 | 0.00 | 0.25 | 0.01 | 88 | 1013.5 |